Вернуться в каталог

STARLINK-1131

АктивенСвязьVLEO
NORAD 45047·PAYLOAD·🇺🇸 United States

Запущен Jan 29, 2020 с Cape Canaveral Space Force Station

Loading…

Ближайшие Пролёты (ближайшие 24 часа)

TLE

СвежийSource: CelesTrak SupGP

Эпоха: Sep 14, 2026, 13:07 UTC

1 45047C 20006D   26257.54701389  .00054982  00000+0  51989-3 0  2576
2 45047  53.1481  95.9294 0003922 131.4630  96.7667 15.66298492    10

Отслеживайте STARLINK-1131 в реальном времени с AllMySat

Download on the App Store